www.pogodaiklimat.ru

Погода и климат >> Архив погоды >> Австрия >> Рец


ПОГОДА в Реце

  • Прогноз погоды в Реце
  • Монитор погоды в Реце

АРХИВ ПОГОДЫ в Реце

Время (UTC), дата Ветер
(напр.,м/с)
 
Видим.   Явления Облачность Т
(С)
Тd
(С)
f
(%)
Тe
(С)
Тes
(С)
Комфортность P
(гПа)
Po
(гПа)
Тmin
(С)
Tmax
(С)
R
(мм)
R24
(мм)
S
(см)
10 14.08 СЗ 5 н/о н/о +19.7 +9.7 52 +21 +21 комфорт 1016.7 979.7
11 14.08 СЗ 3 н/о н/о +21.3 +10.8 51 +23 +23 комфорт 1016.4 979.7
12 14.08 З 5 н/о н/о +20.0 +9.7 51 +21 +21 комфорт 1016.7 979.8
13 14.08 З 5 н/о н/о +20.1 +10.6 54 +21 +21 комфорт 1016.8 979.9
14 14.08 СЗ 3 н/о н/о +21.5 +9.0 45 +23 +23 комфорт 1016.3 979.6
15 14.08 З 4 н/о н/о +22.0 +9.0 43 +23 +23 комфорт 1015.7 979.0
16 14.08 З 4 н/о н/о +21.8 +7.5 40 +23 +23 комфорт 1015.7 979.0
17 14.08 З 4 н/о н/о +20.7 +7.6 43 +22 +22 комфорт 1015.9 979.1
18 14.08 СЗ 5 н/о н/о +18.6 +9.4 55 +19 +19 1016.7 979.6 +14.6 +22.2
19 14.08 СЗ 5 н/о н/о +17.8 +9.4 58 +17 +17 1017.2 980.0
20 14.08 СЗ 3 н/о н/о +17.3 +9.4 60 +17 +17 1017.7 980.4
21 14.08 СЗ 2 н/о н/о +16.6 +10.0 65 +17 +17 1017.9 980.5
22 14.08 СЗ 3 н/о н/о +16.5 +9.6 64 +16 +16 1017.9 980.5
23 14.08 С 1 н/о н/о +14.7 +10.0 73 +15 +15 1018.3 980.7
00 15.08 З 2 н/о н/о +14.1 +9.2 72 +14 +14 1018.2 980.5
01 15.08 З 1 н/о н/о +14.9 +8.7 66 +15 +15 1018.0 980.4
02 15.08 В 1 н/о н/о +14.5 +8.4 67 +15 +15 1017.7 980.0
03 15.08 З 1 н/о н/о +15.2 +8.0 62 +16 +16 1017.4 979.8
04 15.08 В 1 н/о н/о +13.2 +9.0 76 +13 +13 1017.4 979.6
05 15.08 З 1 н/о н/о +11.8 +9.2 84 +12 +12 1017.7 979.7
06 15.08 СВ 1 н/о н/о +13.9 +9.9 77 +14 +14 1017.4 979.7 +11.5 +18.7
07 15.08 СВ 2 н/о н/о +15.8 +11.7 77 +16 +16 1016.9 979.5
08 15.08 В 1 н/о н/о +17.7 +11.3 66 +19 +19 1016.4 979.2
09 15.08 Ю 1 н/о н/о +19.4 +12.1 63 +22 +22 комфорт 1015.9 979.0
10 15.08 Ю 2 н/о н/о +20.5 +10.8 54 +23 +23 комфорт 1015.4 978.6
11 15.08 Ю 2 н/о н/о +21.8 +9.5 45 +23 +23 комфорт 1014.5 977.9
12 15.08 Ю 3 н/о н/о +22.1 +8.1 41 +23 +23 комфорт 1014.1 977.5
13 15.08 ЮВ 3 н/о н/о +22.8 +7.5 37 +24 +24 комфорт 1013.5 977.0
14 15.08 ЮВ 2 н/о н/о +23.3 +8.6 39 +25 +25 комфорт 1013.0 976.6
15 15.08 Ю 2 н/о н/о +23.7 +9.1 39 +24 +24 комфорт 1012.7 976.4
16 15.08 Ю 2 н/о н/о +23.0 +9.6 43 +25 +25 комфорт 1012.6 976.2
17 15.08 Ю 2 н/о н/о +22.6 +10.1 45 +24 +24 комфорт 1012.3 975.9
18 15.08 Ю 2 27 км 9/9 660 м
[Cu Sc]
+21.6 +11.4 52 +24 +24 комфорт 1012.9 976.3 +13.4 +23.9
19 15.08 штиль 0 н/о н/о +21.1 +10.9 52 +23 +23 комфорт 1013.3 976.6
20 15.08 З 5 н/о н/о +20.2 +11.2 56 +22 +22 комфорт 1013.6 976.8
21 15.08 З 4 н/о н/о +19.7 +11.9 61 +21 +21 комфорт 1013.9 977.1
22 15.08 З 6 н/о н/о +19.3 +12.1 63 +20 +20 1014.4 977.5
23 15.08 З 3 н/о н/о +18.6 +12.4 67 +19 +19 1014.7 977.7
00 16.08 З 5 н/о н/о +18.1 +12.5 70 +18 +18 1015.0 977.9
01 16.08 З 5 н/о н/о +17.3 +12.5 73 +17 +17 1015.1 977.9
02 16.08 З 3 н/о н/о +16.6 +13.0 79 +16 +16 1015.3 978.0
03 16.08 З 2 н/о н/о +16.7 +13.3 80 +17 +17 1015.3 978.1
04 16.08 З 4 н/о н/о +16.3 +13.2 82 +16 +16 1015.7 978.4
05 16.08 З 3 18 км 8/8 700 м
[Cu Sc]
+16.6 +13.2 80 +16 +16 1015.9 978.6
06 16.08 З 2 20 км 9/9 750 м
[Cu Sc]
+17.0 +13.3 79 +17 +18 1016.6 979.3 +16.3 +21.9
07 16.08 З 3 н/о н/о +18.0 +13.3 74 +18 +18 1016.9 979.8
08 16.08 З 5 н/о н/о +18.0 +13.2 74 +18 +18 1017.1 980.0
09 16.08 З 5 н/о н/о +19.3 +13.4 69 +20 +20 1017.0 980.0
10 16.08 З 5 н/о н/о +20.3 +13.5 65 +22 +22 комфорт 1016.5 979.7
11 16.08 З 5 н/о н/о +21.3 +13.5 61 +24 +24 комфорт 1015.9 979.2
12 16.08 СЗ 4 25 км слаб. ливневой снег 8/8 700 м
[Cu Sc]
+22.1 +13.3 57 +25 +27 комфорт 1015.7 979.1
13 16.08 СЗ 6 н/о ливневой дождь н/о +17.2 +12.7 75 +16 +16 1016.7 979.5 2
14 16.08 З 5 н/о н/о +20.5 +13.7 65 +23 +23 комфорт 1015.8 979.0
15 16.08 З 4 н/о {ливн. осадки} н/о +20.7 +11.7 56 +23 +23 комфорт 1016.0 979.2 2
16 16.08 СЗ 3 н/о н/о +21.3 +11.8 55 +23 +23 комфорт 1015.9 979.2
17 16.08 СЗ 3 н/о н/о +20.3 +12.2 60 +23 +23 комфорт 1016.0 979.2
18 16.08 З 3 30 км {ливн. осадки} 6/6 1000 м
[Cu hum]
+19.3 +13.4 69 +21 +21 комфорт 1016.5 979.5 +16.6 +22.4 2
19 16.08 СВ 2 н/о н/о +17.4 +13.3 77 +18 +18 1017.1 979.9
20 16.08 С 2 н/о н/о +17.3 +12.5 73 +18 +18 1017.4 980.1
21 16.08 З 1 н/о н/о +16.8 +12.1 74 +18 +18 1017.4 980.1
22 16.08 С 2 н/о н/о +17.6 +11.7 68 +18 +18 1017.1 979.9
23 16.08 З 1 н/о н/о +17.8 +11.6 67 +19 +19 1016.9 979.7
00 17.08 С 2 н/о н/о +14.6 +11.7 83 +14 +14 1017.3 979.7
01 17.08 З 1 н/о н/о +15.9 +11.4 75 +17 +17 1016.7 979.3
02 17.08 З 1 н/о н/о +14.6 +11.4 81 +15 +15 1016.6 979.0
03 17.08 С 1 н/о н/о +13.4 +11.1 86 +14 +14 1016.7 979.0
04 17.08 СВ 1 н/о н/о +12.6 +11.0 90 +13 +13 1017.0 979.1
05 17.08 СВ 3 8000 м 1/0
[Ci fib]
+13.4 +12.0 91 +12 +13 1016.8 979.1
06 17.08 СВ 1 5000 м 3/0
[Ci fib]
+15.1 +13.1 88 +16 +18 1017.0 979.5 +12.0 +19.5
07 17.08 СВ 2 н/о н/о +16.1 +13.5 85 +16 +16 1016.7 979.3
08 17.08 В 1 н/о н/о +17.5 +13.8 79 +19 +19 1016.2 979.0
09 17.08 В 1 н/о н/о +18.7 +14.0 74 +21 +21 комфорт 1016.2 979.2
10 17.08 ЮВ 1 н/о н/о +20.0 +14.3 70 +23 +23 комфорт 1015.8 979.0
11 17.08 В 1 н/о н/о +20.5 +14.2 67 +24 +24 комфорт 1015.5 978.7
12 17.08 В 1 30 км 4/1 960 м
[Cu hum Ci sp]
+22.7 +15.8 65 +27 +40 душно 1014.5 978.1
13 17.08 ЮВ 1 н/о н/о +22.1 +14.0 60 +25 +25 комфорт 1014.2 977.7
14 17.08 Ю 1 н/о н/о +23.7 +14.5 56 +26 +26 жарко 1013.9 977.6 0.0
15 17.08 Ю 1 н/о н/о +23.5 +14.2 56 +26 +26 жарко 1013.6 977.3 0.0
16 17.08 В 1 н/о н/о +22.8 +13.3 55 +26 +26 жарко 1013.4 977.0
17 17.08 В 1 н/о н/о +22.5 +13.2 56 +25 +25 комфорт 1013.2 976.7
18 17.08 штиль 0 35 км 4/1 1050 м
[Cu hum Ac trans]
+21.6 +13.9 62 +24 +24 комфорт 1013.4 976.8 +14.8 +24.2 0.0
19 17.08 СВ 1 н/о н/о +21.2 +13.7 62 +24 +24 комфорт 1013.4 976.8
20 17.08 В 1 н/о н/о +21.1 +13.8 63 +24 +24 комфорт 1013.0 976.4
21 17.08 З 2 н/о н/о +20.7 +13.6 64 +24 +24 комфорт 1013.1 976.4
22 17.08 ЮЗ 1 н/о н/о +21.2 +11.6 54 +23 +23 комфорт 1012.8 976.2
23 17.08 штиль 0 н/о н/о +20.3 +12.5 61 +22 +22 комфорт 1012.5 975.8
00 18.08 СВ 1 н/о н/о +19.7 +12.9 65 +22 +22 комфорт 1012.7 975.9
01 18.08 С 2 н/о н/о +19.4 +13.3 68 +21 +21 комфорт 1012.7 975.9
02 18.08 штиль 0 н/о н/о +19.0 +13.9 72 +20 +20 1012.5 975.7 0.0
03 18.08 СЗ 1 н/о н/о +19.2 +13.7 70 +22 +22 комфорт 1012.4 975.6 0.0
04 18.08 штиль 0 н/о н/о +19.2 +13.6 70 +20 +20 1012.0 975.2
05 18.08 З 2 13 км 9/9 660 м
[Cu Sc]
+20.0 +13.5 66 +23 +23 комфорт 1012.0 975.3
06 18.08 ЮЗ 1 20 км {ливн. осадки} 9/9 660 м
[Cu Sc]
+19.1 +15.5 80 +22 +22 комфорт 1012.3 975.5 +18.3 +21.9 0.0
07 18.08 В 1 н/о н/о +20.8 +16.3 75 +25 +25 комфорт 1012.1 975.5
08 18.08 ЮВ 1 н/о н/о +22.3 +16.3 69 +27 +27 душно 1012.1 975.7 0.0
09 18.08 В 1 н/о н/о +23.9 +16.4 63 +27 +27 жарко 1011.7 975.5 0.0
10 18.08 Ю 2 н/о н/о +25.2 +15.9 56 +28 +28 жарко 1011.5 975.5 0.0
11 18.08 Ю 2 н/о н/о +27.6 +15.7 48 +31 +31 душно 1010.8 975.1
12 18.08 Ю 3 35 км {ливн. осадки} 1/1 960 м
[Cu hum]
+29.4 +15.2 42 +32 +42 душно 1010.1 974.6 0.0
13 18.08 Ю 4 н/о н/о +30.5 +16.2 42 +34 +34 очень
душно
1009.5 974.2
14 18.08 Ю 4 н/о н/о +31.3 +16.2 40 +34 +34 душно 1009.0 973.8
15 18.08 Ю 4 н/о н/о +31.6 +14.8 36 +34 +34 душно 1008.9 973.7
16 18.08 ЮЗ 4 н/о н/о +32.3 +14.3 34 +34 +34 душно 1008.8 973.7
17 18.08 З 2 н/о н/о +31.7 +14.9 36 +34 +34 душно 1008.9 973.7
18 18.08 СВ 2 23 км ясно +29.7 +15.0 41 +32 +32 душно 1009.0 973.6 +19.0 +32.5 0.0
19 18.08 Ю 2 н/о н/о +27.6 +16.3 50 +31 +31 душно 1009.4 973.7
20 18.08 ЮЗ 2 н/о н/о +26.1 +16.0 54 +29 +29 жарко 1009.9 974.0
21 18.08 Ю 2 н/о н/о +26.1 +14.9 50 +29 +29 жарко 1010.0 974.1
22 18.08 ЮЗ 2 н/о н/о +24.9 +14.9 54 +28 +28 жарко 1010.0 974.0
23 18.08 Ю 1 н/о н/о +24.9 +14.6 53 +28 +28 жарко 1009.7 973.7
00 19.08 Ю 2 н/о н/о +22.6 +16.3 68 +27 +27 душно 1010.0 973.7
01 19.08 С 1 н/о н/о +21.7 +17.1 75 +26 +26 душно 1010.1 973.7
02 19.08 СВ 2 н/о н/о +21.1 +17.4 79 +25 +25 комфорт 1010.6 974.1
03 19.08 СЗ 4 н/о н/о +19.4 +16.7 84 +21 +21 комфорт 1011.8 975.1
04 19.08 С 2 н/о н/о +19.5 +16.9 85 +22 +22 комфорт 1012.4 975.7
05 19.08 З 5 10 км 1/1 750 м
[Cu hum]
+19.0 +16.1 83 +20 +20 1013.9 977.0
06 19.08 З 6 13 км 1/0
[Ci fib]
+21.8 +15.6 68 +25 +26 комфорт 1014.3 977.8 +18.8 +30.6
07 19.08 СЗ 4 н/о н/о +23.5 +16.1 63 +27 +27 душно 1014.7 978.4
08 19.08 З 5 н/о н/о +24.5 +15.3 57 +27 +27 жарко 1014.9 978.7
09 19.08 З 4 н/о н/о +25.5 +15.0 52 +28 +28 жарко 1015.1 979.0
10 19.08 З 3 н/о н/о +26.1 +14.7 49 +29 +29 жарко 1015.6 979.5
11 19.08 З 4 н/о н/о +26.6 +14.1 46 +29 +29 жарко 1015.3 979.3
12 19.08 З 4 35 км 4/4 1050 м
[Cu hum]
+27.4 +12.5 40 +29 +34 жарко 1015.6 979.6
13 19.08 ЮЗ 2 н/о н/о +28.1 +14.8 44 +31 +31 душно 1015.4 979.6
14 19.08 штиль 0 н/о н/о +28.7 +13.8 40 +31 +31 жарко 1015.3 979.5
15 19.08 СЗ 4 н/о н/о +27.4 +15.5 48 +30 +30 жарко 1015.4 979.5
16 19.08 СЗ 3 н/о н/о +26.1 +15.8 53 +29 +29 жарко 1015.6 979.5
17 19.08 СЗ 5 н/о н/о +25.5 +15.4 54 +29 +29 душно 1015.9 979.7
18 19.08 СЗ 4 22 км 9/9 660 м
[Cu Sc]
+24.7 +14.5 53 +27 +27 жарко 1016.5 980.2 +21.1 +29.3
19 19.08 З 1 н/о н/о +23.3 +15.5 62 +28 +28 душно 1017.3 980.8 0.0
20 19.08 СЗ 1 н/о н/о +23.3 +15.2 60 +27 +27 душно 1018.1 981.6 0.0
21 19.08 С 1 н/о н/о +22.5 +15.3 64 +26 +26 жарко 1018.2 981.6 0.0
22 19.08 СЗ 2 н/о н/о +22.8 +14.9 61 +27 +27 душно 1018.1 981.5
23 19.08 СЗ 2 н/о н/о +22.2 +14.9 63 +26 +26 душно 1018.0 981.4
00 20.08 СЗ 1 н/о н/о +20.6 +15.5 73 +25 +25 комфорт 1018.4 981.6 0.0
01 20.08 С 3 н/о н/о +20.1 +15.5 75 +23 +23 комфорт 1018.5 981.6
02 20.08 С 3 н/о н/о +19.9 +15.4 75 +22 +22 комфорт 1018.9 982.0
03 20.08 С 2 н/о н/о +19.4 +15.6 79 +22 +22 комфорт 1019.0 982.0
04 20.08 С 3 н/о н/о +18.9 +15.6 81 +20 +20 1019.2 982.1
05 20.08 С 3 18 км 9/9 660 м
[Cu Sc]
+18.9 +15.6 81 +20 +20 1019.8 982.7
06 20.08 С 1 20 км 9/9 700 м
[Cu Sc]
+20.4 +16.6 79 +25 +25 комфорт 1019.8 982.9 +18.8 +24.8 0.0
07 20.08 С 1 н/о н/о +21.6 +17.1 76 +26 +26 душно 1019.6 982.9
08 20.08 В 3 н/о н/о +21.9 +16.8 73 +26 +26 душно 1019.3 982.6
09 20.08 СВ 2 н/о н/о +22.7 +17.3 72 +28 +28 душно 1019.5 982.9
10 20.08 СВ 2 н/о н/о +23.9 +18.0 70 +28 +28 душно 1019.0 982.6
11 20.08 СВ 2 н/о н/о +24.6 +17.8 66 +29 +29 душно 1018.7 982.4
12 20.08 В 2 27 км 8/8 800 м
[Cu hum]
+25.1 +18.6 67 +30 +32 душно 1018.3 982.1
13 20.08 В 2 н/о н/о +25.2 +17.1 61 +29 +29 душно 1017.6 981.4
14 20.08 СВ 2 н/о н/о +25.8 +17.8 61 +30 +30 душно 1017.4 981.3
15 20.08 В 1 н/о н/о +25.7 +18.3 64 +30 +30 душно 1017.0 980.9
16 20.08 СВ 2 н/о н/о +25.7 +18.7 65 +31 +31 очень
душно
1016.4 980.3
17 20.08 СВ 2 н/о н/о +25.5 +19.6 70 +31 +31 очень
душно
1016.2 980.1
18 20.08 С 3 22 км 9/9 660 м
[Cu Sc]
+24.6 +19.0 71 +30 +30 очень
душно
1015.9 979.7 +20.0 +26.7
19 20.08 С 2 н/о н/о +24.0 +18.9 73 +29 +29 душно 1016.2 979.9
20 20.08 С 2 н/о н/о +23.1 +18.6 76 +29 +29 очень
душно
1016.0 979.6
21 20.08 С 4 н/о н/о +22.7 +18.3 76 +28 +28 душно 1016.0 979.5
22 20.08 СЗ 6 н/о н/о +20.3 +17.3 83 +23 +23 комфорт 1016.7 979.9
23 20.08 СЗ 8
{16}
н/о осадки н/о +18.4 +16.5 89 +18 +18 1018.1 981.0 0.1
00 21.08 СЗ 9
{16}
н/о в посл. час осадки н/о +18.4 +16.4 88 +18 +18 1018.7 981.6 0.2
01 21.08 З 5
{14}
н/о н/о +18.1 +15.6 85 +18 +18 1021.4 984.1
02 21.08 З 10
{14}
н/о н/о +16.8 +14.1 84 +15 +15 1022.2 984.7
03 21.08 СЗ 9
{17}
н/о н/о +16.1 +13.1 82 +14 +14 1023.4 985.8
04 21.08 СЗ 5
{14}
н/о н/о +15.5 +13.0 85 +14 +14 1024.3 986.6
05 21.08 СЗ 7
{13}
18 км 8/8 660 м
[Cu Sc]
+15.7 +12.6 82 +14 +14 1024.8 987.1
06 21.08 СЗ 6
{17}
20 км {гроза, ливн. осадки} 8/8 660 м
[Cu Sc]
+15.9 +12.7 81 +15 +15 1026.5 988.7 +15.3 +24.6 0.2
07 21.08 СЗ 4 н/о н/о +17.5 +13.1 75 +17 +17 1026.6 989.0
08 21.08 СЗ 6 н/о н/о +16.9 +12.5 75 +16 +16 1026.5 988.9

 

Местоположение метеостанции Рец (Австрия): широта 48.77 долгота 15.95 высота над уровнем моря 323 м.

В архиве по умолчанию представлена погода в Реце за последнюю неделю. Архивные данные за месяц целиком и за предыдущие месяцы, начиная с января 2011 года, Вы можете получить, выбрав интересующий диапазон дат из раскрывающегося списка и нажав кнопку "Ввод!".


*Определитесь, кто Вы:
робот инопланетянин человек

Внимание! Время в таблицах - всемирное. Для получения местного времени необходимо прибавить поправку, которая равна 1 ч.

Смотрите также архив погоды в соседних городах и на ближайших метеорологических станциях:

Погода в Кучарловице (Чехия) (16 км)
Погода в Гарс-ам-Кампе (Австрия) (29 км)
Погода в Лейзер Берге (Австрия) (38 км)
Погода в Лангенлойсе (Австрия) (38 км)
Погода на АЭС Дукованы (Чехия) (39 км)
Погода в Аллентштайге (Австрия) (44 км)
Погода в Кремс-ан-дер-Донау (Австрия) (46 км)
Погода в Замке Namest nad Oslav (Чехия) (46 км)
Погода в Штоккерау (Австрия) (47 км)
Погода в Пойсдорфе (Австрия) (51 км)

Пояснения к столбцам:

Ветер - указаны скорость ветра в м/с - средняя за 10 мин, порывы в срок и между сроками (в фигурных скобках) и направление, откуда дует ветер: С - северный, СВ - северо-восточный, В - восточный, ЮВ - юго-восточный, Ю - южный, ЮЗ - юго-западный, З - западный, СЗ - северо-западный.
Видимость - горизонтальная дальность видимости в метрах или километрах. При видимости от 1 до 10 км при отсутствии осадков обычно наблюдается дымка, при ухудшении видимости до 1 км и менее - туман. В сухую погоду видимость может ухудшаться дымом, пылью или мглою.
Явления - указаны атмосферные явления, наблюдавшиеся в срок или в последний час перед сроком; фигурными скобками обозначены явления, наблюдавшиеся между сроками (за 1-3 часа до срока); квадратными скобками обозначены град или гололедные отложения с указанием их диаметра в мм.
Облачность - указаны через наклонную черту общая и нижняя облачность в баллах и высота нижней границы облаков в метрах; квадратными скобками обозначены формы облаков: Ci - перистые, Cs - перисто-слоистые, Cc - перисто-кучевые, Ac - высококучевые, As - высокослоистые, Sc - слоисто-кучевые, Ns - слоисто-дождевые, Cu - кучевые, Cb - кучево-дождевые. Подробнее классификацию облаков см. в Атласе облаков (PDF).
T - Температура воздуха - температура, измеренная на высоте 2 м над землей.
Td - Температура точки росы - температура, при понижении до которой содержащийся в воздухе водяной пар достигнет насыщения.
f - Относительная влажность воздуха - влажноcть воздуха, измеренная на высоте 2 м над землей.
Te - Эффективная температура - температура, которую ощущает одетый по сезону человек в тени. Характеристика душности погоды. При расчете учитывается влияние влажности воздуха и скорости ветра на теплоощущения человека.
Tes - Эффективная температура на солнце - температура, которую ощущает человек, с поправкой на солнечный нагрев. Характеристика знойности погоды. Зависит от высоты солнца над горизонтом, облачности и скорости ветра. Ночью, в пасмурную погоду, а также при ветре 12 м/с и более поправка равна нулю.
P - Атмосферное давление - приведенное к уровню моря атмосферное давление.
Po - Атмосферное давление - измеренное на уровне метеостанции атмосферное давление.
Tmin - Минимальная температура - минимум температуры воздуха на высоте 2 м над землей.
Tmax - Максимальная температура - максимум температуры воздуха на высоте 2 м над землей.
R - Количество осадков - Количество выпавших осадков за период времени, мм. При наведении курсора мыши на число - период времени, за который выпало указанное количество осадков.
R24 - Количество осадков - Количество выпавших осадков за 24 часа, мм.
S - Снежный покров - Высота снежного покрова, см. При наведении курсора мыши на число - состояние снежного покрова и степень покрытия местности в баллах.